{"data":{"norad_id":61065,"epoch":"2026-05-25T03:48:27.709056Z","epoch_age_seconds":64544,"freshness":"FRESH","line1":"1 61065U 24164R   26145.15865404  .00000040  00000+0  13464-4 0  9991","line2":"2 61065  53.1610  96.0481 0001205  86.0689 274.0450 15.30195886 95180","mean_motion":15.30195886,"eccentricity":0.0001205,"inclination_deg":53.161,"raan_deg":96.0481,"arg_perigee_deg":86.0689,"mean_anomaly_deg":274.045,"bstar":1.3464e-5,"rev_number":9518,"period_min":94.10559871287,"perigee_km":474.40152270474,"apogee_km":476.05318351384,"semimajor_km":6853.3643531093,"source":"CELESTRAK","updated_at":"2026-05-25T13:38:19.356685Z"}}